This is the latest recevied weather packets stored in our database for station/object KB0Y. If no packets are shown the sender has not sent any weather packets the latest 10 day(s).
| Time | Temp. | Humidity | Pressure | Rain* | Wind** | Luminosity | Snow |
|---|---|---|---|---|---|---|---|
| 1777325243 | 26.67° C | 63% | 1021.6 hPa | 0 mm | - | 451 W/m² | - |
| 1777324940 | 26.67° C | 63% | 1021.6 hPa | 0 mm | - | 451 W/m² | - |
| 1777324637 | 26.67° C | 64% | 1022.1 hPa | 0 mm | - | 453 W/m² | - |
| 1777324335 | 26.67° C | 63% | 1022.1 hPa | 0 mm | - | 441 W/m² | - |
| 1777324032 | 26.11° C | 65% | 1021.6 hPa | 0 mm | - | 449 W/m² | - |
| 1777323730 | 26.11° C | 65% | 1021.6 hPa | 0 mm | - | 446 W/m² | - |
| 1777323426 | 26.11° C | 64% | 1021.6 hPa | 0 mm | - | 450 W/m² | - |
| 1777323124 | 26.11° C | 64% | 1022.1 hPa | 0 mm | - | 461 W/m² | - |
| 1777322822 | 26.11° C | 66% | 1022.1 hPa | 0 mm | - | 407 W/m² | - |
| 1777322520 | 26.11° C | 68% | 1022.1 hPa | 0 mm | - | 173 W/m² | - |
| 1777322216 | 26.67° C | 67% | 1022.1 hPa | 0 mm | - | 396 W/m² | - |
| 1777321914 | 26.67° C | 64% | 1022.1 hPa | 0 mm | - | 195 W/m² | - |
| 1777321610 | 26.11° C | 65% | 1022.1 hPa | 0 mm | - | 533 W/m² | - |
| 1777321307 | 26.11° C | 66% | 1022.1 hPa | 0 mm | - | 485 W/m² | - |
| 1777321004 | 25.56° C | 67% | 1021.6 hPa | 0 mm | - | 489 W/m² | - |
| 1777320702 | 25.56° C | 68% | 1022.4 hPa | 0 mm | - | 130 W/m² | - |
| 1777320398 | 25° C | 67% | 1022.1 hPa | 0 mm | - | 547 W/m² | - |
| 1777320095 | 25° C | 68% | 1022.4 hPa | 0 mm | - | 513 W/m² | - |
| 1777319793 | 25° C | 68% | 1022.8 hPa | 0 mm | - | 488 W/m² | - |
| 1777319490 | 25° C | 71% | 1022.4 hPa | 0 mm | - | 494 W/m² | - |
| 1777319187 | 25° C | 70% | 1022.8 hPa | 0 mm | - | 229 W/m² | - |
| 1777318884 | 24.44° C | 70% | 1022.8 hPa | 0 mm | - | 281 W/m² | - |
| 1777318580 | 24.44° C | 70% | 1022.8 hPa | 0 mm | - | 526 W/m² | - |
| 1777318276 | 24.44° C | 69% | 1022.8 hPa | 0 mm | - | 485 W/m² | - |
| 1777317967 | 23.89° C | 70% | 1022.8 hPa | 0 mm | - | 546 W/m² | - |
* Rain latest hour (hover to see other rain measurements)
** Current wind speed in m/s (hover to see current wind gust speed)